Location: Evensen
(52.5775°N, 9.5258°E)
Time: 10:14:49
(UTC+00:00)

Cosmos 2297 Rocket - Pass Details

Date: 15 May 2026
Orbit: 838 x 842 km, 71.0° (Epoch: 6 June)

Event Time Altitude Azimuth Distance (km) Brightness Sun altitude
Exits shadow 21:46:21 15° 117° (ESE) 2,105 3.8 -15.7°
Maximum altitude 21:47:49 17° 98° (E) 2,020 3.9 -15.7°
Drops below altitude 10° 21:51:16 10° 61° (ENE) 2,464 4.7 -15.9°
Sets 21:54:33 0° 41° (NE) 3,405 5.7 -16.1°
